Location: The Saddle
(36.8333°N, 80.3417°W)
Time: 15:53:57
(UTC-05:00)

Transit 2A Rocket - All Passes

Search period start: 25 January 2022 00:00
Search period end: 04 February 2022 00:00
Orbit: 584 x 917 km, 66.7° (Epoch: 25 January)

Date Brightness Start Highest point End Pass type
(mag) Time Alt. Az. Time Alt. Az. Time Alt. Az.
25 Jan - 03:43:54 10° NNW 03:49:11 40° NE 03:53:58 10° SE visible
25 Jan - 05:27:12 10° NW 05:31:25 24° WSW 05:35:21 10° SSW visible
25 Jan - 18:14:19 10° S 18:20:04 52° ESE 18:26:00 10° NE visible
25 Jan - 19:57:56 10° WSW 20:03:00 27° NW 20:08:07 10° N visible
26 Jan - 03:01:38 10° N 03:06:11 25° NE 03:10:24 10° ESE night (unlit)
26 Jan - 04:43:51 10° NW 04:49:01 43° WSW 04:53:41 10° S visible
26 Jan - 17:32:29 10° SSE 17:37:35 30° ESE 17:42:49 10° NE daylight
26 Jan - 19:14:19 10° SW 19:20:01 42° NW 19:25:49 10° NNE visible
27 Jan - 02:19:45 10° N 02:23:02 16° NE 02:26:10 10° E night (unlit)
27 Jan - 04:00:55 10° NNW 04:06:27 80° WSW 04:11:24 10° SSE night (unlit)
27 Jan - 16:51:28 10° SE 16:55:12 17° ESE 16:59:00 10° ENE daylight
27 Jan - 18:31:12 10° SW 18:37:11 69° WNW 18:43:19 10° NNE visible
27 Jan - 20:18:06 10° WNW 20:20:55 13° NW 20:23:45 10° NNW visible
28 Jan - 03:18:15 10° NNW 03:23:43 57° ENE 03:28:38 10° SE night (unlit)
28 Jan - 05:02:32 10° WNW 05:05:36 16° WSW 05:08:32 10° SW night (unlit)
28 Jan - 17:48:31 10° SSW 17:54:29 72° ESE 18:00:36 10° NNE daylight
28 Jan - 19:33:17 10° W 19:37:42 20° NW 19:42:10 10° N visible
29 Jan - 02:35:49 10° N 02:40:49 33° NE 02:45:24 10° ESE night (unlit)
29 Jan - 04:18:41 10° NW 04:23:16 29° WSW 04:27:30 10° SSW night (unlit)
29 Jan - 17:06:18 10° S 17:11:54 42° ESE 17:17:38 10° NE daylight
29 Jan - 18:49:18 10° WSW 18:54:39 32° NW 19:00:03 10° N visible
30 Jan - 01:53:40 10° N 01:57:47 21° NE 02:01:37 10° E night (unlit)
30 Jan - 03:35:30 10° NW 03:40:48 54° WSW 03:45:36 10° S night (unlit)
30 Jan - 16:24:43 10° SSE 16:29:27 25° ESE 16:34:16 10° NE daylight
30 Jan - 18:05:52 10° SW 18:11:44 50° WNW 18:17:41 10° NNE visible
31 Jan - 01:12:05 10° NNE 01:14:34 13° NE 01:16:59 10° ENE night (unlit)
31 Jan - 02:52:40 10° NNW 02:58:11 83° ENE 03:03:07 10° SSE night (unlit)
31 Jan - 15:44:13 10° SE 15:47:06 14° ESE 15:50:01 10° ENE daylight
31 Jan - 17:22:54 10° SSW 17:28:56 83° WNW 17:35:06 10° NNE daylight
31 Jan - 19:08:56 10° W 19:12:29 16° NW 19:16:01 10° N visible
01 Feb - 02:10:06 10° NNW 02:15:24 46° ENE 02:20:12 10° SE night (unlit)
01 Feb - 03:53:46 10° WNW 03:57:29 20° WSW 04:00:59 10° SSW night (unlit)
01 Feb - 16:40:23 10° S 16:46:16 60° ESE 16:52:17 10° NE daylight
01 Feb - 18:24:30 10° WSW 18:29:19 24° NW 18:34:10 10° N visible
02 Feb - 01:27:46 10° N 01:32:27 28° NE 01:36:46 10° ESE night (unlit)
02 Feb - 03:10:14 10° NW 03:15:06 36° WSW 03:19:33 10° S night (unlit)
02 Feb - 15:58:22 10° S 16:03:44 35° ESE 16:09:13 10° NE daylight
02 Feb - 17:40:44 10° WSW 17:46:19 37° NW 17:51:57 10° NNE daylight
03 Feb - 00:45:46 10° N 00:49:21 17° NE 00:52:43 10° E night (unlit)
03 Feb - 02:27:12 10° NNW 02:32:35 68° WSW 02:37:25 10° SSE night (unlit)
03 Feb - 15:17:04 10° SSE 15:21:19 20° ESE 15:25:38 10° ENE daylight
03 Feb - 16:57:28 10° SW 17:03:27 61° WNW 17:09:30 10° NNE daylight
03 Feb - 18:45:14 10° WNW 18:47:18 12° NW 18:49:22 10° NNW visible
